Time,TemperatureF,DewpointF,PressureIn,WindDirection,WindDirectionDegrees,WindSpeedMPH,WindSpeedGustMPH,Humidity,HourlyPrecipIn,Conditions,Clouds,dailyrainin,SoftwareType,DateUTC
2013-02-26 00:07:00,44.7,29.1,29.87,WNW,291,9.0,9.0,54,0.00,,,0.00,Wunderground v.1.15,2013-02-26 06:07:00,
2013-02-26 00:17:00,44.5,29.3,29.87,WSW,256,9.0,9.0,55,0.00,,,0.00,Wunderground v.1.15,2013-02-26 06:17:00,
2013-02-26 00:27:00,44.4,29.2,29.87,NW,309,8.0,11.0,55,0.00,,,0.00,Wunderground v.1.15,2013-02-26 06:27:00,
2013-02-26 00:37:00,44.3,29.1,29.88,West,281,11.0,13.0,55,0.00,,,0.00,Wunderground v.1.15,2013-02-26 06:37:00,
2013-02-26 00:47:00,44.3,29.1,29.88,West,278,12.0,14.0,55,0.00,,,0.00,Wunderground v.1.15,2013-02-26 06:47:00,
2013-02-26 00:57:00,44.0,28.9,29.88,West,273,11.0,11.0,55,0.00,,,0.00,Wunderground v.1.15,2013-02-26 06:57:00,
2013-02-26 01:07:00,43.7,29.0,29.87,West,279,10.0,10.0,56,0.00,,,0.00,Wunderground v.1.15,2013-02-26 07:07:00,
2013-02-26 01:17:00,43.5,28.8,29.86,West,276,10.0,10.0,56,0.00,,,0.00,Wunderground v.1.15,2013-02-26 07:17:00,
2013-02-26 01:27:00,43.4,28.7,29.86,WNW,291,9.0,9.0,56,0.00,,,0.00,Wunderground v.1.15,2013-02-26 07:27:00,
2013-02-26 01:37:00,43.3,27.3,29.87,WSW,247,10.0,10.0,53,0.00,,,0.00,Wunderground v.1.15,2013-02-26 07:37:00,
2013-02-26 01:47:00,43.1,28.5,29.88,West,267,10.0,10.0,56,0.00,,,0.00,Wunderground v.1.15,2013-02-26 07:47:00,
2013-02-26 01:57:00,43.0,28.8,29.88,West,274,8.0,9.0,57,0.00,,,0.00,Wunderground v.1.15,2013-02-26 07:57:00,
2013-02-26 02:07:00,42.8,28.6,29.88,NW,315,9.0,9.0,57,0.00,,,0.00,Wunderground v.1.15,2013-02-26 08:07:00,
2013-02-26 02:17:00,42.5,28.3,29.88,West,275,6.0,6.0,57,0.00,,,0.00,Wunderground v.1.15,2013-02-26 08:17:00,
2013-02-26 02:27:00,42.4,28.2,29.88,WNW,292,6.0,9.0,57,0.00,,,0.00,Wunderground v.1.15,2013-02-26 08:27:00,
2013-02-26 02:37:00,42.4,28.2,29.88,West,278,7.0,10.0,57,0.00,,,0.00,Wunderground v.1.15,2013-02-26 08:37:00,
2013-02-26 02:47:00,42.3,28.1,29.88,NW,309,7.0,7.0,57,0.00,,,0.00,Wunderground v.1.15,2013-02-26 08:47:00,
2013-02-26 02:57:00,42.1,27.9,29.88,WNW,282,7.0,10.0,57,0.00,,,0.00,Wunderground v.1.15,2013-02-26 08:57:00,
2013-02-26 03:07:00,42.0,28.3,29.88,West,281,7.0,7.0,58,0.00,,,0.00,Wunderground v.1.15,2013-02-26 09:07:00,
2013-02-26 03:17:00,41.8,28.1,29.89,West,280,6.0,11.0,58,0.00,,,0.00,Wunderground v.1.15,2013-02-26 09:17:00,
2013-02-26 03:27:00,41.8,28.1,29.89,West,267,7.0,7.0,58,0.00,,,0.00,Wunderground v.1.15,2013-02-26 09:27:00,
2013-02-26 03:37:00,41.5,27.8,29.89,WNW,286,6.0,6.0,58,0.00,,,0.00,Wunderground v.1.15,2013-02-26 09:37:00,
2013-02-26 03:47:00,41.4,27.7,29.90,West,260,5.0,5.0,58,0.00,,,0.00,Wunderground v.1.15,2013-02-26 09:47:00,
2013-02-26 03:57:00,41.3,28.0,29.90,SW,236,4.0,5.0,59,0.00,,,0.00,Wunderground v.1.15,2013-02-26 09:57:00,
2013-02-26 04:07:00,41.1,27.9,29.90,WSW,248,4.0,4.0,59,0.00,,,0.00,Wunderground v.1.15,2013-02-26 10:07:00,
2013-02-26 04:16:00,41.0,27.8,29.90,WSW,247,4.0,6.0,59,0.00,,,0.00,Wunderground v.1.15,2013-02-26 10:16:00,
2013-02-26 04:27:00,41.0,28.2,29.90,WSW,240,5.0,5.0,60,0.00,,,0.00,Wunderground v.1.15,2013-02-26 10:27:00,
2013-02-26 04:37:00,40.4,28.0,29.90,WSW,240,1.0,4.0,61,0.00,,,0.00,Wunderground v.1.15,2013-02-26 10:37:00,
2013-02-26 04:47:00,40.3,27.9,29.91,West,271,3.0,3.0,61,0.00,,,0.00,Wunderground v.1.15,2013-02-26 10:47:00,
2013-02-26 04:57:00,40.1,27.7,29.91,WSW,258,2.0,4.0,61,0.00,,,0.00,Wunderground v.1.15,2013-02-26 10:57:00,
2013-02-26 05:07:00,40.1,27.7,29.91,West,279,3.0,5.0,61,0.00,,,0.00,Wunderground v.1.15,2013-02-26 11:07:00,
2013-02-26 05:17:00,40.0,28.0,29.91,West,277,2.0,2.0,62,0.00,,,0.00,Wunderground v.1.15,2013-02-26 11:17:00,
2013-02-26 05:27:00,39.7,27.7,29.91,WSW,252,1.0,1.0,62,0.00,,,0.00,Wunderground v.1.15,2013-02-26 11:27:00,
2013-02-26 05:37:00,39.1,27.6,29.92,WSW,251,0.0,2.0,63,0.00,,,0.00,Wunderground v.1.15,2013-02-26 11:37:00,
2013-02-26 05:47:00,38.5,27.4,29.92,WSW,251,1.0,1.0,64,0.00,,,0.00,Wunderground v.1.15,2013-02-26 11:47:00,
2013-02-26 05:57:00,37.8,27.1,29.92,WSW,251,0.0,0.0,65,0.00,,,0.00,Wunderground v.1.15,2013-02-26 11:57:00,
2013-02-26 06:07:00,37.7,27.4,29.93,WSW,251,0.0,0.0,66,0.00,,,0.00,Wunderground v.1.15,2013-02-26 12:07:00,
2013-02-26 06:17:00,37.5,27.2,29.93,WSW,251,0.0,0.0,66,0.00,,,0.00,Wunderground v.1.15,2013-02-26 12:17:00,
2013-02-26 06:27:00,37.8,27.1,29.93,WSW,251,0.0,0.0,65,0.00,,,0.00,Wunderground v.1.15,2013-02-26 12:27:00,
2013-02-26 06:37:00,37.8,27.5,29.93,WSW,250,1.0,2.0,66,0.00,,,0.00,Wunderground v.1.15,2013-02-26 12:37:00,
2013-02-26 06:47:00,37.7,27.4,29.94,WSW,250,0.0,0.0,66,0.00,,,0.00,Wunderground v.1.15,2013-02-26 12:47:00,
2013-02-26 06:57:00,37.4,27.4,29.94,WSW,250,1.0,1.0,67,0.00,,,0.00,Wunderground v.1.15,2013-02-26 12:57:00,
2013-02-26 07:07:00,37.2,27.2,29.94,WSW,250,0.0,0.0,67,0.00,,,0.00,Wunderground v.1.15,2013-02-26 13:07:00,
2013-02-26 07:17:00,37.2,27.2,29.95,WSW,249,0.0,0.0,67,0.00,,,0.00,Wunderground v.1.15,2013-02-26 13:17:00,
2013-02-26 07:27:00,37.4,27.4,29.95,WSW,244,1.0,1.0,67,0.00,,,0.00,Wunderground v.1.15,2013-02-26 13:27:00,
2013-02-26 07:37:00,37.7,27.4,29.96,WSW,241,1.0,2.0,66,0.00,,,0.00,Wunderground v.1.15,2013-02-26 13:37:00,
2013-02-26 07:46:00,38.5,27.7,29.97,SW,234,2.0,2.0,65,0.00,,,0.00,Wunderground v.1.15,2013-02-26 13:46:00,
2013-02-26 07:56:00,39.5,27.9,29.97,West,271,3.0,9.0,63,0.00,,,0.00,Wunderground v.1.15,2013-02-26 13:56:00,
2013-02-26 08:07:00,40.1,27.7,29.97,WSW,257,5.0,5.0,61,0.00,,,0.00,Wunderground v.1.15,2013-02-26 14:07:00,
2013-02-26 08:17:00,41.0,28.2,29.98,WNW,290,5.0,5.0,60,0.00,,,0.00,Wunderground v.1.15,2013-02-26 14:17:00,
2013-02-26 08:27:00,41.8,28.1,29.98,West,275,6.0,9.0,58,0.00,,,0.00,Wunderground v.1.15,2013-02-26 14:27:00,
2013-02-26 08:37:00,42.5,27.9,29.98,West,280,8.0,13.0,56,0.00,,,0.00,Wunderground v.1.15,2013-02-26 14:37:00,
2013-02-26 08:47:00,43.4,28.3,29.99,WNW,299,7.0,11.0,55,0.00,,,0.00,Wunderground v.1.15,2013-02-26 14:47:00,
2013-02-26 08:57:00,44.1,28.0,29.99,WNW,287,7.0,13.0,53,0.00,,,0.00,Wunderground v.1.15,2013-02-26 14:57:00,
2013-02-26 09:07:00,44.7,27.7,29.99,WNW,282,9.0,12.0,51,0.00,,,0.00,Wunderground v.1.15,2013-02-26 15:07:00,
2013-02-26 09:17:00,45.4,27.8,29.99,NW,318,8.0,8.0,50,0.00,,,0.00,Wunderground v.1.15,2013-02-26 15:17:00,
2013-02-26 09:27:00,46.3,28.2,29.99,NW,305,8.0,8.0,49,0.00,,,0.00,Wunderground v.1.15,2013-02-26 15:27:00,
2013-02-26 09:37:00,46.4,27.8,29.99,WNW,286,9.0,9.0,48,0.00,,,0.00,Wunderground v.1.15,2013-02-26 15:37:00,
2013-02-26 09:47:00,47.2,28.5,29.99,WNW,282,7.0,17.0,48,0.00,,,0.00,Wunderground v.1.15,2013-02-26 15:47:00,
2013-02-26 09:57:00,47.8,29.0,29.99,West,267,8.0,14.0,48,0.00,,,0.00,Wunderground v.1.15,2013-02-26 15:57:00,
2013-02-26 10:07:00,48.4,28.5,29.99,NW,307,8.0,8.0,46,0.00,,,0.00,Wunderground v.1.15,2013-02-26 16:07:00,
2013-02-26 10:17:00,48.7,28.3,29.98,WNW,292,8.0,8.0,45,0.00,,,0.00,Wunderground v.1.15,2013-02-26 16:17:00,
2013-02-26 10:27:00,48.8,28.4,29.98,NNW,338,10.0,10.0,45,0.00,,,0.00,Wunderground v.1.15,2013-02-26 16:27:00,
2013-02-26 10:37:00,49.8,28.2,29.98,WNW,302,8.0,9.0,43,0.00,,,0.00,Wunderground v.1.15,2013-02-26 16:37:00,
2013-02-26 10:47:00,50.3,28.1,29.98,WNW,292,9.0,11.0,42,0.00,,,0.00,Wunderground v.1.15,2013-02-26 16:47:00,
2013-02-26 10:57:00,50.9,28.0,29.98,West,260,7.0,7.0,41,0.00,,,0.00,Wunderground v.1.15,2013-02-26 16:57:00,
2013-02-26 11:07:00,51.0,27.5,29.99,West,281,7.0,8.0,40,0.00,,,0.00,Wunderground v.1.15,2013-02-26 17:07:00,
2013-02-26 11:17:00,52.5,26.9,29.99,WNW,295,7.0,10.0,37,0.00,,,0.00,Wunderground v.1.15,2013-02-26 17:17:00,
2013-02-26 11:27:00,52.7,27.1,29.99,West,259,8.0,16.0,37,0.00,,,0.00,Wunderground v.1.15,2013-02-26 17:27:00,
2013-02-26 11:37:00,53.4,28.4,29.98,WSW,258,5.0,6.0,38,0.00,,,0.00,Wunderground v.1.15,2013-02-26 17:37:00,
2013-02-26 11:47:00,54.0,27.6,29.98,West,271,8.0,12.0,36,0.00,,,0.00,Wunderground v.1.15,2013-02-26 17:47:00,
2013-02-26 11:57:00,54.4,27.3,29.98,West,261,7.0,7.0,35,0.00,,,0.00,Wunderground v.1.15,2013-02-26 17:57:00,
2013-02-26 12:07:00,55.3,25.1,29.97,WSW,256,8.0,8.0,31,0.00,,,0.00,Wunderground v.1.15,2013-02-26 18:07:00,
2013-02-26 12:17:00,55.8,27.1,29.95,WNW,288,7.0,7.0,33,0.00,,,0.00,Wunderground v.1.15,2013-02-26 18:17:00,
2013-02-26 12:27:00,56.7,24.8,29.95,West,261,7.0,11.0,29,0.00,,,0.00,Wunderground v.1.15,2013-02-26 18:27:00,
2013-02-26 12:37:00,56.7,26.4,29.94,West,262,9.0,11.0,31,0.00,,,0.00,Wunderground v.1.15,2013-02-26 18:37:00,
2013-02-26 12:47:00,57.5,24.6,29.93,SW,234,8.0,10.0,28,0.00,,,0.00,Wunderground v.1.15,2013-02-26 18:47:00,
2013-02-26 12:57:00,58.2,24.3,29.93,NW,309,10.0,10.0,27,0.00,,,0.00,Wunderground v.1.15,2013-02-26 18:57:00,
2013-02-26 13:07:00,58.8,23.9,29.92,West,281,8.0,10.0,26,0.00,,,0.00,Wunderground v.1.15,2013-02-26 19:07:00,
2013-02-26 13:17:00,59.1,24.2,29.92,WSW,258,8.0,8.0,26,0.00,,,0.00,Wunderground v.1.15,2013-02-26 19:17:00,
2013-02-26 13:27:00,59.4,24.5,29.92,WNW,283,8.0,8.0,26,0.00,,,0.00,Wunderground v.1.15,2013-02-26 19:27:00,
2013-02-26 13:37:00,60.0,25.0,29.91,NNW,329,9.0,9.0,26,0.00,,,0.00,Wunderground v.1.15,2013-02-26 19:37:00,
2013-02-26 13:47:00,60.1,23.1,29.91,WNW,282,9.0,13.0,24,0.00,,,0.00,Wunderground v.1.15,2013-02-26 19:47:00,
2013-02-26 13:57:00,60.6,24.5,29.91,WNW,295,8.0,8.0,25,0.00,,,0.00,Wunderground v.1.15,2013-02-26 19:57:00,
2013-02-26 14:07:00,61.5,25.3,29.90,WSW,238,6.0,11.0,25,0.00,,,0.00,Wunderground v.1.15,2013-02-26 20:07:00,
2013-02-26 14:17:00,61.5,25.3,29.90,WSW,245,8.0,8.0,25,0.00,,,0.00,Wunderground v.1.15,2013-02-26 20:17:00,
2013-02-26 14:27:00,62.2,24.9,29.90,WSW,242,8.0,8.0,24,0.00,,,0.00,Wunderground v.1.15,2013-02-26 20:27:00,
2013-02-26 14:37:00,61.7,24.5,29.91,WSW,250,7.0,12.0,24,0.00,,,0.00,Wunderground v.1.15,2013-02-26 20:37:00,
2013-02-26 14:47:00,61.7,26.4,29.89,West,263,7.0,7.0,26,0.00,,,0.00,Wunderground v.1.15,2013-02-26 20:47:00,
2013-02-26 14:57:00,62.3,25.0,29.89,West,276,7.0,7.0,24,0.00,,,0.00,Wunderground v.1.15,2013-02-26 20:57:00,
2013-02-26 15:07:00,62.0,24.8,29.89,West,271,7.0,7.0,24,0.00,,,0.00,Wunderground v.1.15,2013-02-26 21:07:00,
2013-02-26 15:17:00,62.3,25.0,29.89,WNW,286,5.0,5.0,24,0.00,,,0.00,Wunderground v.1.15,2013-02-26 21:17:00,
2013-02-26 15:26:00,62.8,25.4,29.89,NW,309,4.0,4.0,24,0.00,,,0.00,Wunderground v.1.15,2013-02-26 21:26:00,
2013-02-26 15:37:00,63.3,24.8,29.88,WNW,290,4.0,4.0,23,0.00,,,0.00,Wunderground v.1.15,2013-02-26 21:37:00,
2013-02-26 15:47:00,63.1,24.7,29.87,SW,230,4.0,5.0,23,0.00,,,0.00,Wunderground v.1.15,2013-02-26 21:47:00,
2013-02-26 15:57:00,63.4,25.9,29.87,WNW,289,3.0,4.0,24,0.00,,,0.00,Wunderground v.1.15,2013-02-26 21:57:00,
2013-02-26 16:07:00,63.6,26.1,29.88,West,261,4.0,4.0,24,0.00,,,0.00,Wunderground v.1.15,2013-02-26 22:07:00,
2013-02-26 16:17:00,64.1,26.5,29.88,SW,226,3.0,4.0,24,0.00,,,0.00,Wunderground v.1.15,2013-02-26 22:17:00,
2013-02-26 16:26:00,63.7,26.2,29.88,SW,235,4.0,5.0,24,0.00,,,0.00,Wunderground v.1.15,2013-02-26 22:26:00,
2013-02-26 16:37:00,63.3,26.8,29.88,SSE,163,4.0,6.0,25,0.00,,,0.00,Wunderground v.1.15,2013-02-26 22:37:00,
2013-02-26 16:47:00,63.4,25.9,29.88,South,187,6.0,6.0,24,0.00,,,0.00,Wunderground v.1.15,2013-02-26 22:47:00,
2013-02-26 16:56:00,63.4,25.9,29.88,SW,229,5.0,5.0,24,0.00,,,0.00,Wunderground v.1.15,2013-02-26 22:56:00,
2013-02-26 17:07:00,63.4,26.9,29.88,SW,229,1.0,1.0,25,0.00,,,0.00,Wunderground v.1.15,2013-02-26 23:07:00,
2013-02-26 17:17:00,63.3,26.8,29.88,SW,223,1.0,1.0,25,0.00,,,0.00,Wunderground v.1.15,2013-02-26 23:17:00,
2013-02-26 17:27:00,63.4,25.9,29.88,SW,223,0.0,0.0,24,0.00,,,0.00,Wunderground v.1.15,2013-02-26 23:27:00,
2013-02-26 17:37:00,63.1,26.7,29.88,SW,223,0.0,0.0,25,0.00,,,0.00,Wunderground v.1.15,2013-02-26 23:37:00,
2013-02-26 17:47:00,62.6,27.2,29.88,SW,223,0.0,0.0,26,0.00,,,0.00,Wunderground v.1.15,2013-02-26 23:47:00,
2013-02-26 17:57:00,61.7,27.3,29.88,SW,223,0.0,0.0,27,0.00,,,0.00,Wunderground v.1.15,2013-02-26 23:57:00,
2013-02-26 18:07:00,60.9,32.3,29.88,SW,223,0.0,0.0,34,0.00,,,0.00,Wunderground v.1.15,2013-02-27 00:07:00,
2013-02-26 18:17:00,59.4,30.3,29.88,SW,223,0.0,0.0,33,0.00,,,0.00,Wunderground v.1.15,2013-02-27 00:17:00,
2013-02-26 18:27:00,58.3,33.4,29.88,SW,223,0.0,0.0,39,0.00,,,0.00,Wunderground v.1.15,2013-02-27 00:27:00,
2013-02-26 18:37:00,56.1,33.9,29.88,SW,223,0.0,0.0,43,0.00,,,0.00,Wunderground v.1.15,2013-02-27 00:37:00,
2013-02-26 18:47:00,54.9,33.4,29.89,SW,223,0.0,0.0,44,0.00,,,0.00,Wunderground v.1.15,2013-02-27 00:47:00,
2013-02-26 18:57:00,53.4,32.6,29.89,SW,223,0.0,0.0,45,0.00,,,0.00,Wunderground v.1.15,2013-02-27 00:57:00,
2013-02-26 19:07:00,52.4,32.7,29.89,SW,223,0.0,0.0,47,0.00,,,0.00,Wunderground v.1.15,2013-02-27 01:07:00,
2013-02-26 19:17:00,51.3,32.3,29.88,SW,223,0.0,0.0,48,0.00,,,0.00,Wunderground v.1.15,2013-02-27 01:17:00,
2013-02-26 19:27:00,50.3,34.3,29.88,SW,223,0.0,2.0,54,0.00,,,0.00,Wunderground v.1.15,2013-02-27 01:27:00,
2013-02-26 19:37:00,49.4,33.0,29.90,SW,223,0.0,0.0,53,0.00,,,0.00,Wunderground v.1.15,2013-02-27 01:37:00,
2013-02-26 19:47:00,49.1,33.2,29.91,SW,223,0.0,0.0,54,0.00,,,0.00,Wunderground v.1.15,2013-02-27 01:47:00,
2013-02-26 19:57:00,48.4,33.0,29.91,SW,223,0.0,0.0,55,0.00,,,0.00,Wunderground v.1.15,2013-02-27 01:57:00,
2013-02-26 20:07:00,47.8,34.6,29.91,SW,223,0.0,0.0,60,0.00,,,0.00,Wunderground v.1.15,2013-02-27 02:07:00,
2013-02-26 20:16:00,46.9,34.6,29.90,SW,223,0.0,0.0,62,0.00,,,0.00,Wunderground v.1.15,2013-02-27 02:16:00,
2013-02-26 20:27:00,46.6,34.7,29.90,SW,223,0.0,0.0,63,0.00,,,0.00,Wunderground v.1.15,2013-02-27 02:27:00,
2013-02-26 20:37:00,46.2,34.3,29.91,SW,223,0.0,0.0,63,0.00,,,0.00,Wunderground v.1.15,2013-02-27 02:37:00,
2013-02-26 20:47:00,46.2,34.3,29.92,SW,223,0.0,0.0,63,0.00,,,0.00,Wunderground v.1.15,2013-02-27 02:47:00,
2013-02-26 20:57:00,45.9,34.0,29.92,SW,223,0.0,0.0,63,0.00,,,0.00,Wunderground v.1.15,2013-02-27 02:57:00,
2013-02-26 21:07:00,45.3,34.2,29.92,SW,223,0.0,0.0,65,0.00,,,0.00,Wunderground v.1.15,2013-02-27 03:07:00,
2013-02-26 21:17:00,44.8,33.7,29.92,SW,223,0.0,0.0,65,0.00,,,0.00,Wunderground v.1.15,2013-02-27 03:17:00,
2013-02-26 21:27:00,44.5,33.8,29.92,SW,223,0.0,0.0,66,0.00,,,0.00,Wunderground v.1.15,2013-02-27 03:27:00,
2013-02-26 21:37:00,44.0,33.7,29.93,SW,223,0.0,0.0,67,0.00,,,0.00,Wunderground v.1.15,2013-02-27 03:37:00,
2013-02-26 21:47:00,43.8,33.6,29.93,SW,223,0.0,0.0,67,0.00,,,0.00,Wunderground v.1.15,2013-02-27 03:47:00,
2013-02-26 21:57:00,42.8,33.3,29.93,SW,223,0.0,0.0,69,0.00,,,0.00,Wunderground v.1.15,2013-02-27 03:57:00,
2013-02-26 22:07:00,42.4,32.9,29.92,SW,223,0.0,0.0,69,0.00,,,0.00,Wunderground v.1.15,2013-02-27 04:07:00,
2013-02-26 22:17:00,42.0,32.9,29.91,SW,223,0.0,0.0,70,0.00,,,0.00,Wunderground v.1.15,2013-02-27 04:17:00,
2013-02-26 22:26:00,41.1,32.1,29.91,SW,223,0.0,0.0,70,0.00,,,0.00,Wunderground v.1.15,2013-02-27 04:26:00,
2013-02-26 22:37:00,40.3,32.0,29.92,SW,223,0.0,0.0,72,0.00,,,0.00,Wunderground v.1.15,2013-02-27 04:37:00,
2013-02-26 22:46:00,39.7,31.8,29.91,SW,223,0.0,0.0,73,0.00,,,0.00,Wunderground v.1.15,2013-02-27 04:46:00,
2013-02-26 22:57:00,39.0,31.1,29.91,SW,223,0.0,0.0,73,0.00,,,0.00,Wunderground v.1.15,2013-02-27 04:57:00,
2013-02-26 23:07:00,38.4,31.2,29.92,SW,223,0.0,0.0,75,0.00,,,0.00,Wunderground v.1.15,2013-02-27 05:07:00,
2013-02-26 23:17:00,37.4,30.5,29.92,SW,223,0.0,0.0,76,0.00,,,0.00,Wunderground v.1.15,2013-02-27 05:17:00,
2013-02-26 23:26:00,37.2,30.7,29.92,SW,223,0.0,0.0,77,0.00,,,0.00,Wunderground v.1.15,2013-02-27 05:26:00,
2013-02-26 23:37:00,37.1,30.2,29.91,SW,223,0.0,0.0,76,0.00,,,0.00,Wunderground v.1.15,2013-02-27 05:37:00,
2013-02-26 23:46:00,36.5,30.0,29.92,SW,223,0.0,0.0,77,0.00,,,0.00,Wunderground v.1.15,2013-02-27 05:46:00,
2013-02-26 23:57:00,35.8,29.6,29.92,SW,223,0.0,0.0,78,0.00,,,0.00,Wunderground v.1.15,2013-02-27 05:57:00,